Flag for Russia Weather past 2 weeks in Orenburg, Russia

Now
34 °F

Overcast.


Feels Like: 34 °F
Forecast: 34 / 43 °F
Wind: 1 mph from North

Location: Orenburg / Tsentralny

Current Time: Oct 2, 2014 at 2:52:43 AM

Latest Report: Oct 2, 2014 at 2:30 AM


Visibility: N/A

Pressure: 29.71 "Hg

Humidity: 93%

Dew point: 32 °F

Location of OrenburgLocation

Historic Weather in Orenburg — Graph

°F

Orenburg temperature yesterday

Maximum temperature yesterday: 57 °F (at 12:00 AM)
Minimum temperature yesterday: 37 °F (at 11:00 PM)
Average temperature yesterday: 52 °F

Past Weeks' High & Low Weather Summary

 TemperatureHumidityPressure
High77 °F (Sep 24, 4:00 PM)100% (Sep 30, 7:00 AM)30.45 "Hg (Sep 30, 7:00 AM)
Low25 °F (Sep 19, 6:00 AM)13% (Sep 24, 4:00 PM)29.68 "Hg (Oct 1, 9:30 AM)
Average51 °F50%30.03 "Hg
* Reported Sep 17 1:00 AM — Oct 2 1:30 AM, Orenburg, Weather by CustomWeather, © 2014

Note: Actual official high and low records may vary slightly from our data, if they occured in-between our weather recording intervals... More about our weather records

Advertising

Orenburg weather history for previous 24 hours

 ConditionsComfort  
Time TempWeatherWind HumidityBarometerVisibility
1:30 AM
Oct 2
34 °FPassing clouds.No wind93%29.74 "HgN/A
1:00 AM34 °FPassing clouds.3 mph87%29.74 "HgN/A
12:30 AM36 °FPassing clouds.1 mph87%29.74 "HgN/A
12:00 AM39 °FPassing clouds.3 mph81%29.74 "HgN/A
11:30 PM
Oct 1
39 °FPassing clouds.3 mph87%29.74 "HgN/A
11:00 PM37 °FPassing clouds.3 mph87%29.74 "HgN/A
10:30 PM41 °FPassing clouds.1 mph87%29.74 "HgN/A
10:00 PM45 °FPassing clouds.6 mph76%29.74 "HgN/A
9:30 PM43 °FPassing clouds.6 mph81%29.74 "HgN/A
9:00 PM46 °FPassing clouds.3 mph76%29.74 "HgN/A
8:30 PM48 °FPassing clouds.6 mph71%29.74 "HgN/A
8:00 PM50 °FPassing clouds.8 mph62%29.74 "HgN/A
7:30 PM54 °FScattered clouds.10 mph63%29.71 "HgN/A
7:00 PM55 °FScattered clouds.10 mph63%29.71 "HgN/A
6:30 PM55 °FBroken clouds.10 mph63%29.71 "HgN/A
6:00 PM55 °FScattered clouds.8 mph67%29.71 "HgN/A
5:30 PM55 °FPartly sunny.8 mph77%29.71 "HgN/A
5:00 PM54 °FPartly sunny.8 mph82%29.71 "HgN/A
4:30 PM54 °FPartly sunny.10 mph82%29.71 "HgN/A
4:00 PM54 °FPartly sunny.8 mph88%29.71 "HgN/A
3:30 PM52 °FPartly sunny.8 mph94%29.71 "HgN/A
3:00 PM50 °FSprinkles. Scattered clouds.8 mph94%29.71 "Hg1 mi
2:30 PM50 °FSprinkles. Broken clouds.8 mph94%29.71 "Hg3 mi
2:00 PM50 °FSprinkles. Overcast.10 mph94%29.71 "Hg2 mi
1:30 PM50 °FSprinkles. Overcast.10 mph94%29.68 "Hg3 mi
1:00 PM50 °FSprinkles. Overcast.8 mph94%29.71 "Hg2 mi
12:30 PM50 °FSprinkles. Overcast.15 mph94%29.68 "Hg2 mi
12:00 PM50 °FSprinkles. Overcast.13 mph88%29.68 "Hg3 mi
11:30 AM52 °FSprinkles. Overcast.17 mph77%29.68 "Hg3 mi
11:00 AM52 °FSprinkles. Overcast.10 mph72%29.68 "Hg3 mi
10:30 AM52 °FSprinkles. Overcast.13 mph67%29.68 "Hg3 mi
10:00 AM52 °FOvercast.15 mph62%29.68 "HgN/A
9:30 AM52 °FOvercast.13 mph67%29.68 "HgN/A
8:30 AM52 °FSprinkles. Overcast.8 mph67%29.71 "Hg3 mi
8:00 AM52 °FSprinkles. Overcast.8 mph62%29.71 "Hg4 mi
7:30 AM52 °FSprinkles. Overcast.6 mph62%29.74 "Hg4 mi
7:00 AM54 °FSprinkles. Overcast.8 mph54%29.74 "Hg4 mi
6:30 AM55 °FOvercast.13 mph44%29.74 "HgN/A
6:00 AM55 °FOvercast.10 mph44%29.74 "HgN/A
5:30 AM55 °FOvercast.10 mph44%29.74 "HgN/A
5:00 AM55 °FOvercast.10 mph44%29.77 "HgN/A
4:30 AM54 °FOvercast.8 mph47%29.77 "HgN/A
4:00 AM55 °FOvercast.10 mph44%29.77 "HgN/A
3:30 AM55 °FOvercast.8 mph44%29.80 "HgN/A
3:00 AM54 °FOvercast.8 mph47%29.80 "HgN/A
2:30 AM55 °FOvercast.8 mph44%29.80 "HgN/A
2:00 AM55 °FOvercast.8 mph44%29.83 "HgN/A
Weather by CustomWeather, © 2014

See weather overviewHow to use our weather pages